{"data":{"norad_id":45438,"epoch":"2026-05-25T02:09:07.728192Z","epoch_age_seconds":67032,"freshness":"FRESH","line1":"1 45438U 20020Q   26145.08967278 -.00000350  00000+0 -10237-2 0  9997","line2":"2 45438  87.8909  25.6624 0001789  81.8581 278.2749 13.11417567299643","mean_motion":13.11417567,"eccentricity":0.0001789,"inclination_deg":87.8909,"raan_deg":25.6624,"arg_perigee_deg":81.8581,"mean_anomaly_deg":278.2749,"bstar":-0.0010237,"rev_number":29964,"period_min":109.80484296044,"perigee_km":1216.3214048817,"apogee_km":1219.0391883104,"semimajor_km":7595.817296596,"source":"CELESTRAK","updated_at":"2026-05-25T13:38:22.343800Z"}}